Weather History for KJXN - December, 2012

Change the Weather History Date:

Wednesday, December 5, 2012

  Actual Average Record
Temperature  
Mean Temperature 31 °F 32 °F  
Max Temperature 39 °F 38 °F 69 °F (2001)
Min Temperature 23 °F 25 °F 5 °F (1976)
Degree Days  
Heating Degree Days 34 33  
Month to date heating degree days 99 163  
Since 1 July heating degree days 1537 1567  
Cooling Degree Days 0 0  
Month to date cooling degree days 0 0  
Year to date cooling degree days 873 592  
Moisture  
Dew Point 20 °F    
Average Humidity 65    
Maximum Humidity 81    
Minimum Humidity 48    
Precipitation  
Precipitation 0.00 in 0.06 in 0.28 in (1959)
Month to date precipitation 0.58 0.34  
Year to date precipitation 23.88 29.97  
Sea Level Pressure  
Sea Level Pressure 30.36 in    
Wind  
Wind Speed 6 mph (North)    
Max Wind Speed 14 mph    
Max Gust Speed 21 mph    
Visibility 10 miles    
Events      
T = Trace of Precipitation, MM = Missing Value Source: NWS Daily Summary

Daily Weather History Graph

Daily Weather History Graph

Search for Another Location

Airport or City:

Trip Planner

Search our weather history database for the weather conditions in past years. The results will help you decide how hot, cold, wet, or windy it might be!

Date:

Astronomy

Dec. 05, 2012 Rise Set
Actual Time 7:51 AM EST 5:05 PM EST
Civil Twilight 7:20 AM EST 5:37 PM EST
Nautical Twilight 6:45 AM EST 6:12 PM EST
Astronomical Twilight 6:11 AM EST 6:46 PM EST
Moon No Moon Rise 12:09 PM EST (12/5)
Length of Visible Light 10h 17m
Length of Day
9h 13m
Waning Gibbous, 60% of the Moon is Illuminated
Dec 5
Waning Gibbous
Dec 6
Last Quarter
Dec 13
New
Dec 20
First Quarter
Dec 28
Full

Hourly Weather History & Observations

Time (EST) Temp. Windchill Dew Point Humidity Pressure Visibility Wind Dir Wind Speed Gust Speed Precip Events Conditions
12:56 AM 37.0 °F 32.4 °F 28.0 °F 70% 30.19 in 10.0 mi WNW 5.8 mph - N/A   Clear
1:56 AM 34.0 °F 29.8 °F 26.1 °F 73% 30.21 in 10.0 mi NW 4.6 mph - N/A   Clear
2:56 AM 32.0 °F 24.2 °F 25.0 °F 75% 30.24 in 10.0 mi WNW 9.2 mph - N/A   Clear
3:56 AM 30.9 °F 23.5 °F 21.9 °F 69% 30.28 in 10.0 mi NW 8.1 mph 17.3 mph N/A   Clear
4:56 AM 30.0 °F 23.2 °F 21.9 °F 72% 30.30 in 10.0 mi NW 6.9 mph - N/A   Clear
5:56 AM 28.0 °F 19.3 °F 19.9 °F 72% 30.32 in 10.0 mi NNW 9.2 mph 19.6 mph N/A   Clear
6:56 AM 26.1 °F 18.4 °F 18.0 °F 71% 30.36 in 10.0 mi NNW 6.9 mph - N/A   Clear
7:56 AM 26.1 °F 20.5 °F 17.1 °F 69% 30.38 in 10.0 mi NNW 4.6 mph - N/A   Clear
9:35 AM 28.4 °F 19.7 °F 17.6 °F 64% 30.38 in 10.0 mi North 9.2 mph - N/A   Scattered Clouds
9:56 AM 30.0 °F 21.7 °F 17.1 °F 59% 30.41 in 10.0 mi NNW 9.2 mph - N/A   Clear
10:34 AM 32.0 °F 24.8 °F 17.6 °F 55% 30.39 in 1.2 mi NNW 8.1 mph - N/A   Haze
10:44 AM 32.0 °F 24.8 °F 17.6 °F 55% 30.40 in 10.0 mi North 8.1 mph 17.3 mph N/A   Clear
10:56 AM 33.1 °F 26.9 °F 18.0 °F 54% 30.43 in 10.0 mi NNW 6.9 mph - N/A   Clear
11:56 AM 35.1 °F 27.4 °F 19.0 °F 52% 30.40 in - North 10.4 mph - N/A   Clear
12:56 PM 36.0 °F 29.6 °F 19.0 °F 50% 30.38 in 10.0 mi NNW 8.1 mph - N/A   Clear
1:56 PM 36.0 °F 30.3 °F 19.9 °F 52% 30.39 in 10.0 mi NNE 6.9 mph - N/A   Clear
2:56 PM 37.0 °F 34.5 °F 19.9 °F 50% 30.39 in 10.0 mi North 3.5 mph - N/A   Clear
3:56 PM 36.0 °F 31.1 °F 19.9 °F 52% 30.40 in 10.0 mi North 5.8 mph - N/A   Clear
4:56 PM 33.1 °F 28.7 °F 19.9 °F 59% 30.39 in 10.0 mi ENE 4.6 mph - N/A   Clear
5:56 PM 30.9 °F 27.5 °F 19.9 °F 64% 30.40 in 10.0 mi East 3.5 mph - N/A   Clear
6:56 PM 28.9 °F - 21.0 °F 72% 30.40 in 10.0 mi Calm Calm - N/A   Clear
7:56 PM 27.0 °F 23.0 °F 19.9 °F 75% 30.39 in 10.0 mi ESE 3.5 mph - N/A   Clear
8:56 PM 25.0 °F - 19.9 °F 81% 30.39 in 10.0 mi Calm Calm - N/A   Clear
9:56 PM 24.1 °F - 19.9 °F 84% 30.40 in 10.0 mi Calm Calm - N/A   Clear
10:56 PM 26.1 °F 19.4 °F 19.0 °F 75% 30.36 in 10.0 mi SSE 5.8 mph - N/A   Clear
11:56 PM 25.0 °F 20.7 °F 19.9 °F 81% 30.36 in 10.0 mi SE 3.5 mph - N/A   Clear